User: anonymous   Login
Location: Pel�-Koumbol�
(14.9505°N, 3.0798°W)
Time: 21:48:22
(UTC+00:00)
Language:

USA 229 DEB - Orbit

View from above orbital plane
View from above orbital plane
View from above satellite
View from above satellite

Ground track
Ground track

The orbit data is extracted from the following two-line orbital elements,

1 37391U 11014B   20152.91154978 0.00000000  00000-0  00000-0 0    07
2 37391  63.4418 148.2369 0164000 358.8669   1.1330 13.40778545    02
Epoch (UTC): 31 May 2020 21:52:37
Eccentricity: 0.0164000
inclination: 63.4418°
perigee height: 983 km
apogee height: 1229 km
right ascension of ascending node: 148.2369°
argument of perigee: 358.8669°
revolutions per day: 13.40778545
mean anomaly at epoch: 1.1330°
orbit number at epoch: 0

The dashed part of the orbit path shows where the satellite is in the earth's shadow,  

DLR